Time,TemperatureF,DewpointF,PressureIn,WindDirection,WindDirectionDegrees,WindSpeedMPH,WindSpeedGustMPH,Humidity,HourlyPrecipIn,Conditions,Clouds,dailyrainin,SoftwareType,DateUTC
2013-01-08 00:00:00,30.2,24.2,30.39,SW,225,2.5,4.0,78,0.00,,,0.00,WUHU216HW,2013-01-08 05:00:00,
2013-01-08 00:01:00,30.2,24.5,30.39,WSW,248,2.0,4.0,79,0.00,,,0.00,WUHU216HW,2013-01-08 05:01:00,
2013-01-08 00:02:00,30.2,24.5,30.39,SSE,158,1.3,4.0,79,0.00,,,0.00,WUHU216HW,2013-01-08 05:02:00,
2013-01-08 00:07:00,30.2,24.5,30.39,SSE,158,1.1,4.5,79,0.00,,,0.00,WUHU216HW,2013-01-08 05:07:00,
2013-01-08 00:12:00,30.2,24.5,30.39,ENE,68,3.4,5.8,79,0.00,,,0.00,WUHU216HW,2013-01-08 05:12:00,
2013-01-08 00:17:00,30.2,24.5,30.39,SSE,158,1.6,5.8,79,0.00,,,0.00,WUHU216HW,2013-01-08 05:17:00,
2013-01-08 00:22:00,30.2,24.5,30.39,SSE,158,2.7,5.1,79,0.00,,,0.00,WUHU216HW,2013-01-08 05:22:00,
2013-01-08 00:27:00,30.2,24.5,30.39,East,90,4.0,4.0,79,0.00,,,0.00,WUHU216HW,2013-01-08 05:27:00,
2013-01-08 00:32:00,30.1,24.3,30.39,ESE,113,2.2,4.0,79,0.00,,,0.00,WUHU216HW,2013-01-08 05:32:00,
2013-01-08 00:37:00,29.9,23.9,30.39,SE,135,4.3,4.3,78,0.00,,,0.00,WUHU216HW,2013-01-08 05:37:00,
2013-01-08 00:42:00,29.9,24.1,30.39,South,180,2.9,4.3,79,0.00,,,0.00,WUHU216HW,2013-01-08 05:42:00,
2013-01-08 00:47:00,29.7,23.9,30.40,SE,135,2.2,2.9,79,0.00,,,0.00,WUHU216HW,2013-01-08 05:47:00,
2013-01-08 00:52:00,29.7,23.9,30.40,SSE,158,2.9,4.0,79,0.00,,,0.00,WUHU216HW,2013-01-08 05:52:00,
2013-01-08 00:57:00,29.7,23.9,30.39,SE,135,3.1,4.0,79,0.00,,,0.00,WUHU216HW,2013-01-08 05:57:00,
2013-01-08 01:02:00,29.5,23.8,30.40,SE,135,1.6,5.1,79,0.00,,,0.00,WUHU216HW,2013-01-08 06:02:00,
2013-01-08 01:07:00,29.5,24.1,30.39,ESE,113,2.2,5.1,80,0.00,,,0.00,WUHU216HW,2013-01-08 06:07:00,
2013-01-08 01:12:00,29.5,24.1,30.39,East,90,3.1,6.0,80,0.00,,,0.00,WUHU216HW,2013-01-08 06:12:00,
2013-01-08 01:17:00,29.5,24.1,30.39,East,90,2.9,6.0,80,0.00,,,0.00,WUHU216HW,2013-01-08 06:17:00,
2013-01-08 01:22:00,29.5,24.1,30.39,SE,135,1.1,4.5,80,0.00,,,0.00,WUHU216HW,2013-01-08 06:22:00,
2013-01-08 01:27:00,29.5,24.1,30.39,SE,135,2.5,4.3,80,0.00,,,0.00,WUHU216HW,2013-01-08 06:27:00,
2013-01-08 01:32:00,29.5,24.1,30.39,ENE,68,2.5,2.9,80,0.00,,,0.00,WUHU216HW,2013-01-08 06:32:00,
2013-01-08 01:37:00,29.5,23.8,30.39,South,180,3.1,4.0,79,0.00,,,0.00,WUHU216HW,2013-01-08 06:37:00,
2013-01-08 01:42:00,29.5,24.1,30.39,SSE,158,2.5,4.0,80,0.00,,,0.00,WUHU216HW,2013-01-08 06:42:00,
2013-01-08 01:47:00,29.3,23.9,30.40,ENE,68,1.8,3.1,80,0.00,,,0.00,WUHU216HW,2013-01-08 06:47:00,
2013-01-08 01:52:00,29.3,23.9,30.40,East,90,2.2,3.1,80,0.00,,,0.00,WUHU216HW,2013-01-08 06:52:00,
2013-01-08 01:57:00,29.3,23.9,30.40,SE,135,2.9,2.9,80,0.00,,,0.00,WUHU216HW,2013-01-08 06:57:00,
2013-01-08 02:02:00,29.3,23.9,30.41,SE,135,2.2,3.1,80,0.00,,,0.00,WUHU216HW,2013-01-08 07:02:00,
2013-01-08 02:07:00,29.2,23.8,30.40,East,90,2.2,3.1,80,0.00,,,0.00,WUHU216HW,2013-01-08 07:07:00,
2013-01-08 02:12:00,29.2,23.8,30.40,East,90,1.6,4.0,80,0.00,,,0.00,WUHU216HW,2013-01-08 07:12:00,
2013-01-08 02:17:00,29.2,24.0,30.41,East,90,2.7,4.0,81,0.00,,,0.00,WUHU216HW,2013-01-08 07:17:00,
2013-01-08 02:22:00,29.3,24.2,30.41,ESE,113,1.1,2.7,81,0.00,,,0.00,WUHU216HW,2013-01-08 07:22:00,
2013-01-08 02:27:00,29.3,23.9,30.41,South,180,2.9,2.9,80,0.00,,,0.00,WUHU216HW,2013-01-08 07:27:00,
2013-01-08 02:32:00,29.5,24.1,30.40,ESE,113,2.5,5.1,80,0.00,,,0.00,WUHU216HW,2013-01-08 07:32:00,
2013-01-08 02:37:00,29.7,24.3,30.40,South,180,1.1,5.1,80,0.00,,,0.00,WUHU216HW,2013-01-08 07:37:00,
2013-01-08 02:42:00,29.5,24.1,30.40,SSE,158,1.8,3.1,80,0.00,,,0.00,WUHU216HW,2013-01-08 07:42:00,
2013-01-08 02:47:00,29.9,24.1,30.40,South,180,1.1,3.4,79,0.00,,,0.00,WUHU216HW,2013-01-08 07:47:00,
2013-01-08 02:52:00,30.1,24.3,30.40,SSE,158,2.5,3.4,79,0.00,,,0.00,WUHU216HW,2013-01-08 07:52:00,
2013-01-08 02:57:00,30.2,24.2,30.40,WSW,248,1.8,4.0,78,0.00,,,0.00,WUHU216HW,2013-01-08 07:57:00,
2013-01-08 03:02:00,30.2,24.2,30.40,SSE,158,2.5,4.0,78,0.00,,,0.00,WUHU216HW,2013-01-08 08:02:00,
2013-01-08 03:07:00,30.4,24.4,30.40,SSW,203,6.3,6.3,78,0.00,,,0.00,WUHU216HW,2013-01-08 08:07:00,
2013-01-08 03:12:00,30.6,24.6,30.40,South,180,1.6,6.3,78,0.00,,,0.00,WUHU216HW,2013-01-08 08:12:00,
2013-01-08 03:17:00,30.6,24.6,30.40,ESE,113,2.5,3.4,78,0.00,,,0.00,WUHU216HW,2013-01-08 08:17:00,
2013-01-08 03:22:00,31.1,24.8,30.39,SE,135,4.0,6.9,77,0.00,,,0.00,WUHU216HW,2013-01-08 08:22:00,
2013-01-08 03:27:00,31.3,24.7,30.39,South,180,2.5,6.9,76,0.00,,,0.00,WUHU216HW,2013-01-08 08:27:00,
2013-01-08 03:32:00,31.5,24.5,30.39,SSW,203,1.6,6.9,75,0.00,,,0.00,WUHU216HW,2013-01-08 08:32:00,
2013-01-08 03:37:00,31.7,24.7,30.39,SE,135,2.7,5.1,75,0.00,,,0.00,WUHU216HW,2013-01-08 08:37:00,
2013-01-08 03:42:00,31.7,24.7,30.39,ESE,113,2.5,3.4,75,0.00,,,0.00,WUHU216HW,2013-01-08 08:42:00,
2013-01-08 03:47:00,32.0,24.7,30.40,SSE,158,2.5,4.9,74,0.00,,,0.00,WUHU216HW,2013-01-08 08:47:00,
2013-01-08 03:52:00,32.4,24.7,30.40,SW,225,4.3,6.9,73,0.00,,,0.00,WUHU216HW,2013-01-08 08:52:00,
2013-01-08 03:57:00,32.6,24.8,30.40,West,270,2.9,6.9,73,0.00,,,0.00,WUHU216HW,2013-01-08 08:57:00,
2013-01-08 04:02:00,32.8,24.7,30.40,South,180,4.0,4.9,72,0.00,,,0.00,WUHU216HW,2013-01-08 09:02:00,
2013-01-08 04:07:00,32.9,24.8,30.40,SSE,158,3.4,5.4,72,0.00,,,0.00,WUHU216HW,2013-01-08 09:07:00,
2013-01-08 04:12:00,33.3,24.8,30.40,SE,135,1.8,5.4,71,0.00,,,0.00,WUHU216HW,2013-01-08 09:12:00,
2013-01-08 04:17:00,33.3,24.8,30.40,SSE,158,1.3,3.4,71,0.00,,,0.00,WUHU216HW,2013-01-08 09:17:00,
2013-01-08 04:22:00,33.1,24.7,30.40,SE,135,1.8,3.1,71,0.00,,,0.00,WUHU216HW,2013-01-08 09:22:00,
2013-01-08 04:27:00,33.1,24.7,30.40,SSE,158,2.2,2.2,71,0.00,,,0.00,WUHU216HW,2013-01-08 09:27:00,
2013-01-08 04:32:00,33.3,24.6,30.41,SW,225,2.5,3.1,70,0.00,,,0.00,WUHU216HW,2013-01-08 09:32:00,
2013-01-08 04:37:00,33.5,24.7,30.41,SW,225,1.1,3.8,70,0.00,,,0.00,WUHU216HW,2013-01-08 09:37:00,
2013-01-08 04:42:00,33.5,24.7,30.41,SE,135,3.6,3.8,70,0.00,,,0.00,WUHU216HW,2013-01-08 09:42:00,
2013-01-08 04:47:00,33.8,25.0,30.41,SSE,158,2.5,4.3,70,0.00,,,0.00,WUHU216HW,2013-01-08 09:47:00,
2013-01-08 04:52:00,33.8,25.0,30.41,South,180,4.5,4.5,70,0.00,,,0.00,WUHU216HW,2013-01-08 09:52:00,
2013-01-08 04:57:00,33.8,25.0,30.41,South,180,1.1,4.7,70,0.00,,,0.00,WUHU216HW,2013-01-08 09:57:00,
2013-01-08 05:02:00,34.0,24.8,30.41,SSW,203,1.1,4.7,69,0.00,,,0.00,WUHU216HW,2013-01-08 10:02:00,
2013-01-08 05:07:00,33.8,24.7,30.41,SW,225,0.9,4.5,69,0.00,,,0.00,WUHU216HW,2013-01-08 10:07:00,
2013-01-08 05:12:00,33.8,25.0,30.41,NW,315,1.3,3.6,70,0.00,,,0.00,WUHU216HW,2013-01-08 10:12:00,
2013-01-08 05:17:00,33.8,24.7,30.41,South,180,2.0,2.5,69,0.00,,,0.00,WUHU216HW,2013-01-08 10:17:00,
2013-01-08 05:22:00,33.8,24.7,30.41,WSW,248,1.1,3.4,69,0.00,,,0.00,WUHU216HW,2013-01-08 10:22:00,
2013-01-08 05:27:00,33.8,25.0,30.41,SSE,158,2.7,3.4,70,0.00,,,0.00,WUHU216HW,2013-01-08 10:27:00,
2013-01-08 05:32:00,33.8,24.7,30.41,SW,225,1.1,3.4,69,0.00,,,0.00,WUHU216HW,2013-01-08 10:32:00,
2013-01-08 05:37:00,34.0,25.2,30.41,SSE,158,0.4,6.3,70,0.00,,,0.00,WUHU216HW,2013-01-08 10:37:00,
2013-01-08 05:42:00,34.0,24.8,30.41,ESE,113,3.1,6.3,69,0.00,,,0.00,WUHU216HW,2013-01-08 10:42:00,
2013-01-08 05:47:00,33.8,24.7,30.41,SSW,203,0.2,3.8,69,0.00,,,0.00,WUHU216HW,2013-01-08 10:47:00,
2013-01-08 05:52:00,33.8,24.7,30.41,SE,135,1.1,2.9,69,0.00,,,0.00,WUHU216HW,2013-01-08 10:52:00,
2013-01-08 05:57:00,33.8,24.7,30.41,SE,135,1.1,2.5,69,0.00,,,0.00,WUHU216HW,2013-01-08 10:57:00,
2013-01-08 06:02:00,33.8,24.7,30.41,SSW,203,1.3,2.7,69,0.00,,,0.00,WUHU216HW,2013-01-08 11:02:00,
2013-01-08 06:07:00,33.7,24.8,30.41,ESE,113,2.2,2.7,70,0.00,,,0.00,WUHU216HW,2013-01-08 11:07:00,
2013-01-08 06:12:00,33.8,24.7,30.41,SSW,203,3.8,3.8,69,0.00,,,0.00,WUHU216HW,2013-01-08 11:12:00,
2013-01-08 06:17:00,33.8,25.0,30.41,SW,225,0.9,3.8,70,0.00,,,0.00,WUHU216HW,2013-01-08 11:17:00,
2013-01-08 06:22:00,33.8,24.7,30.41,SE,135,1.8,3.6,69,0.00,,,0.00,WUHU216HW,2013-01-08 11:22:00,
2013-01-08 06:27:00,33.7,24.5,30.41,South,180,1.8,4.7,69,0.00,,,0.00,WUHU216HW,2013-01-08 11:27:00,
2013-01-08 06:32:00,33.5,24.3,30.41,SSE,158,1.1,4.7,69,0.00,,,0.00,WUHU216HW,2013-01-08 11:32:00,
2013-01-08 06:37:00,33.5,24.7,30.41,WSW,248,2.5,2.7,70,0.00,,,0.00,WUHU216HW,2013-01-08 11:37:00,
2013-01-08 06:42:00,33.3,24.6,30.41,South,180,1.3,2.7,70,0.00,,,0.00,WUHU216HW,2013-01-08 11:42:00,
2013-01-08 06:47:00,33.1,24.4,30.42,SW,225,1.1,1.8,70,0.00,,,0.00,WUHU216HW,2013-01-08 11:47:00,
2013-01-08 06:52:00,33.1,24.4,30.42,SSW,203,1.8,2.0,70,0.00,,,0.00,WUHU216HW,2013-01-08 11:52:00,
2013-01-08 06:57:00,32.9,24.2,30.42,SSE,158,0.9,2.0,70,0.00,,,0.00,WUHU216HW,2013-01-08 11:57:00,
2013-01-08 07:02:00,32.8,24.4,30.42,South,180,2.9,2.9,71,0.00,,,0.00,WUHU216HW,2013-01-08 12:02:00,
2013-01-08 07:07:00,32.4,24.0,30.42,SSE,158,1.6,4.0,71,0.00,,,0.00,WUHU216HW,2013-01-08 12:07:00,
2013-01-08 07:12:00,32.4,24.4,30.43,ESE,113,1.8,4.0,72,0.00,,,0.00,WUHU216HW,2013-01-08 12:12:00,
2013-01-08 07:17:00,32.0,24.0,30.43,South,180,1.8,2.2,72,0.00,,,0.00,WUHU216HW,2013-01-08 12:17:00,
2013-01-08 07:22:00,31.9,23.9,30.43,SE,135,0.2,2.5,72,0.00,,,0.00,WUHU216HW,2013-01-08 12:22:00,
2013-01-08 07:27:00,31.5,23.9,30.43,ESE,113,2.0,3.4,73,0.00,,,0.00,WUHU216HW,2013-01-08 12:27:00,
2013-01-08 07:32:00,31.1,23.5,30.43,ESE,113,1.1,3.4,73,0.00,,,0.00,WUHU216HW,2013-01-08 12:32:00,
2013-01-08 07:37:00,30.6,23.0,30.43,East,90,1.1,2.7,73,0.00,,,0.00,WUHU216HW,2013-01-08 12:37:00,
2013-01-08 07:42:00,30.2,22.9,30.43,East,90,0.0,2.7,74,0.00,,,0.00,WUHU216HW,2013-01-08 12:42:00,
2013-01-08 07:47:00,29.9,22.6,30.44,ESE,113,0.7,1.8,74,0.00,,,0.00,WUHU216HW,2013-01-08 12:47:00,
2013-01-08 07:52:00,29.5,22.5,30.44,ESE,113,0.4,1.8,75,0.00,,,0.00,WUHU216HW,2013-01-08 12:52:00,
2013-01-08 07:57:00,29.2,22.2,30.44,ESE,113,1.3,2.2,75,0.00,,,0.00,WUHU216HW,2013-01-08 12:57:00,
2013-01-08 08:02:00,29.0,22.1,30.44,ESE,113,0.7,2.2,75,0.00,,,0.00,WUHU216HW,2013-01-08 13:02:00,
2013-01-08 08:07:00,28.8,22.1,30.45,SE,135,1.3,2.7,76,0.00,,,0.00,WUHU216HW,2013-01-08 13:07:00,
2013-01-08 08:12:00,28.6,22.3,30.44,East,90,1.3,2.7,77,0.00,,,0.00,WUHU216HW,2013-01-08 13:12:00,
2013-01-08 08:16:00,28.4,22.2,30.44,ESE,113,2.2,2.2,77,0.00,,,0.00,WUHU216HW,2013-01-08 13:16:00,
2013-01-08 08:21:00,28.4,22.2,30.45,East,90,2.2,2.5,77,0.00,,,0.00,WUHU216HW,2013-01-08 13:21:00,
2013-01-08 08:26:00,28.3,22.0,30.45,East,90,2.7,3.4,77,0.00,,,0.00,WUHU216HW,2013-01-08 13:26:00,
2013-01-08 08:31:00,28.3,22.2,30.45,SE,135,1.8,3.4,78,0.00,,,0.00,WUHU216HW,2013-01-08 13:31:00,
2013-01-08 08:36:00,28.3,22.6,30.45,SSW,203,1.1,2.9,79,0.00,,,0.00,WUHU216HW,2013-01-08 13:36:00,
2013-01-08 08:41:00,28.3,22.2,30.45,ESE,113,2.5,2.9,78,0.00,,,0.00,WUHU216HW,2013-01-08 13:41:00,
2013-01-08 08:46:00,28.3,22.6,30.45,SE,135,2.2,3.8,79,0.00,,,0.00,WUHU216HW,2013-01-08 13:46:00,
2013-01-08 08:51:00,28.3,22.6,30.45,SSE,158,1.6,3.8,79,0.00,,,0.00,WUHU216HW,2013-01-08 13:51:00,
2013-01-08 08:56:00,28.3,22.6,30.45,ESE,113,1.8,3.4,79,0.00,,,0.00,WUHU216HW,2013-01-08 13:56:00,
2013-01-08 09:01:00,28.4,22.8,30.46,East,90,2.0,3.4,79,0.00,,,0.00,WUHU216HW,2013-01-08 14:01:00,
2013-01-08 09:06:00,28.4,22.8,30.46,ESE,113,2.7,2.7,79,0.00,,,0.00,WUHU216HW,2013-01-08 14:06:00,
2013-01-08 09:11:00,28.8,23.1,30.46,SE,135,2.2,3.6,79,0.00,,,0.00,WUHU216HW,2013-01-08 14:11:00,
2013-01-08 09:16:00,29.0,23.3,30.45,ESE,113,1.6,4.0,79,0.00,,,0.00,WUHU216HW,2013-01-08 14:16:00,
2013-01-08 09:21:00,29.2,23.5,30.46,ESE,113,1.6,4.0,79,0.00,,,0.00,WUHU216HW,2013-01-08 14:21:00,
2013-01-08 09:26:00,29.3,23.3,30.46,East,90,2.2,3.4,78,0.00,,,0.00,WUHU216HW,2013-01-08 14:26:00,
2013-01-08 09:31:00,29.7,23.3,30.46,ESE,113,1.1,5.1,77,0.00,,,0.00,WUHU216HW,2013-01-08 14:31:00,
2013-01-08 09:36:00,30.1,24.0,30.46,ENE,68,2.0,5.1,78,0.00,,,0.00,WUHU216HW,2013-01-08 14:36:00,
2013-01-08 09:41:00,30.6,24.6,30.47,East,90,1.8,3.1,78,0.00,,,0.00,WUHU216HW,2013-01-08 14:41:00,
2013-01-08 09:46:00,31.3,24.9,30.46,East,90,2.7,3.4,77,0.00,,,0.00,WUHU216HW,2013-01-08 14:46:00,
2013-01-08 09:51:00,32.0,25.4,30.47,SSE,158,2.2,3.4,76,0.00,,,0.00,WUHU216HW,2013-01-08 14:51:00,
2013-01-08 09:56:00,32.8,25.4,30.46,ESE,113,2.0,2.9,74,0.00,,,0.00,WUHU216HW,2013-01-08 14:56:00,
2013-01-08 10:01:00,32.9,25.8,30.46,ESE,113,2.9,2.9,75,0.00,,,0.00,WUHU216HW,2013-01-08 15:01:00,
2013-01-08 10:06:00,33.3,25.8,30.46,SSE,158,2.0,2.9,74,0.00,,,0.00,WUHU216HW,2013-01-08 15:06:00,
2013-01-08 10:11:00,33.5,25.7,30.46,East,90,2.5,2.5,73,0.00,,,0.00,WUHU216HW,2013-01-08 15:11:00,
2013-01-08 10:16:00,33.8,26.3,30.46,SSE,158,0.7,2.5,74,0.00,,,0.00,WUHU216HW,2013-01-08 15:16:00,
2013-01-08 10:21:00,34.2,26.4,30.46,ESE,113,0.9,2.5,73,0.00,,,0.00,WUHU216HW,2013-01-08 15:21:00,
2013-01-08 10:26:00,34.9,27.1,30.46,ENE,68,1.8,2.5,73,0.00,,,0.00,WUHU216HW,2013-01-08 15:26:00,
2013-01-08 10:31:00,35.6,27.8,30.46,SE,135,1.6,2.5,73,0.00,,,0.00,WUHU216HW,2013-01-08 15:31:00,
2013-01-08 10:36:00,36.0,27.8,30.46,SSE,158,2.0,2.5,72,0.00,,,0.00,WUHU216HW,2013-01-08 15:36:00,
2013-01-08 10:41:00,36.4,27.9,30.46,SE,135,1.6,2.2,71,0.00,,,0.00,WUHU216HW,2013-01-08 15:41:00,
2013-01-08 10:46:00,36.7,27.9,30.46,SE,135,1.8,2.2,70,0.00,,,0.00,WUHU216HW,2013-01-08 15:46:00,
2013-01-08 10:51:00,37.1,27.9,30.46,ESE,113,1.8,2.5,69,0.00,,,0.00,WUHU216HW,2013-01-08 15:51:00,
2013-01-08 10:56:00,37.8,28.5,30.46,East,90,1.3,2.9,69,0.00,,,0.00,WUHU216HW,2013-01-08 15:56:00,
2013-01-08 11:01:00,38.3,28.7,30.46,SSE,158,3.6,3.6,68,0.00,,,0.00,WUHU216HW,2013-01-08 16:01:00,
2013-01-08 11:06:00,38.5,28.1,30.46,SSE,158,2.2,3.6,66,0.00,,,0.00,WUHU216HW,2013-01-08 16:06:00,
2013-01-08 11:11:00,38.7,27.9,30.46,WSW,248,1.1,3.4,65,0.00,,,0.00,WUHU216HW,2013-01-08 16:11:00,
2013-01-08 11:16:00,39.1,27.5,30.46,South,180,0.4,2.9,63,0.00,,,0.00,WUHU216HW,2013-01-08 16:16:00,
2013-01-08 11:21:00,39.4,27.8,30.46,SE,135,1.8,2.2,63,0.00,,,0.00,WUHU216HW,2013-01-08 16:21:00,
2013-01-08 11:26:00,40.0,28.7,30.46,SSE,158,2.5,2.5,64,0.00,,,0.00,WUHU216HW,2013-01-08 16:26:00,
2013-01-08 11:32:00,40.5,28.9,30.45,South,180,2.9,2.9,63,0.00,,,0.00,WUHU216HW,2013-01-08 16:32:00,
2013-01-08 11:37:00,40.9,28.1,30.45,South,180,1.1,3.4,60,0.00,,,0.00,WUHU216HW,2013-01-08 16:37:00,
2013-01-08 11:42:00,41.2,26.2,30.45,South,180,1.3,3.4,55,0.00,,,0.00,WUHU216HW,2013-01-08 16:42:00,
2013-01-08 11:47:00,41.0,25.6,30.45,WSW,248,2.7,3.4,54,0.00,,,0.00,WUHU216HW,2013-01-08 16:47:00,
2013-01-08 11:52:00,41.2,26.2,30.46,NNW,338,1.3,3.6,55,0.00,,,0.00,WUHU216HW,2013-01-08 16:52:00,
2013-01-08 11:57:00,41.4,26.8,30.45,SSW,203,1.1,3.6,56,0.00,,,0.00,WUHU216HW,2013-01-08 16:57:00,
2013-01-08 12:02:00,41.8,26.7,30.45,SSE,158,1.8,4.3,55,0.00,,,0.00,WUHU216HW,2013-01-08 17:02:00,
2013-01-08 12:07:00,42.1,26.2,30.45,NNE,23,1.8,4.3,53,0.00,,,0.00,WUHU216HW,2013-01-08 17:07:00,
2013-01-08 12:12:00,42.5,26.6,30.45,SW,225,1.6,3.6,53,0.00,,,0.00,WUHU216HW,2013-01-08 17:12:00,
2013-01-08 12:17:00,42.7,27.1,30.45,South,180,3.4,3.6,54,0.00,,,0.00,WUHU216HW,2013-01-08 17:17:00,
2013-01-08 12:22:00,42.8,27.3,30.44,South,180,2.2,3.4,54,0.00,,,0.00,WUHU216HW,2013-01-08 17:22:00,
2013-01-08 12:27:00,43.0,27.0,30.44,ESE,113,2.5,2.5,53,0.00,,,0.00,WUHU216HW,2013-01-08 17:27:00,
2013-01-08 12:32:00,43.6,27.6,30.44,SW,225,2.7,2.7,53,0.00,,,0.00,WUHU216HW,2013-01-08 17:32:00,
2013-01-08 12:37:00,43.6,27.1,30.44,SSE,158,2.5,4.5,52,0.00,,,0.00,WUHU216HW,2013-01-08 17:37:00,
2013-01-08 12:42:00,43.4,26.9,30.44,SE,135,1.6,4.5,52,0.00,,,0.00,WUHU216HW,2013-01-08 17:42:00,
2013-01-08 12:47:00,43.2,26.3,30.44,SE,135,2.0,3.4,51,0.00,,,0.00,WUHU216HW,2013-01-08 17:47:00,
2013-01-08 12:52:00,43.0,26.2,30.44,SSE,158,1.1,3.4,51,0.00,,,0.00,WUHU216HW,2013-01-08 17:52:00,
2013-01-08 12:57:00,43.0,25.8,30.44,SSW,203,2.5,4.0,50,0.00,,,0.00,WUHU216HW,2013-01-08 17:57:00,
2013-01-08 13:02:00,42.8,26.0,30.44,South,180,0.9,4.7,51,0.00,,,0.00,WUHU216HW,2013-01-08 18:02:00,
2013-01-08 13:07:00,43.4,25.5,30.43,WSW,248,1.1,4.7,49,0.00,,,0.00,WUHU216HW,2013-01-08 18:07:00,
2013-01-08 13:12:00,43.6,26.6,30.43,SSW,203,1.8,3.4,51,0.00,,,0.00,WUHU216HW,2013-01-08 18:12:00,
2013-01-08 13:17:00,44.5,27.5,30.43,SSW,203,0.4,3.4,51,0.00,,,0.00,WUHU216HW,2013-01-08 18:17:00,
2013-01-08 13:22:00,45.0,25.4,30.43,SW,225,2.9,3.4,46,0.00,,,0.00,WUHU216HW,2013-01-08 18:22:00,
2013-01-08 13:27:00,44.8,25.8,30.43,WSW,248,1.8,3.4,47,0.00,,,0.00,WUHU216HW,2013-01-08 18:27:00,
2013-01-08 13:32:00,45.0,25.9,30.43,SE,135,1.3,3.1,47,0.00,,,0.00,WUHU216HW,2013-01-08 18:32:00,
2013-01-08 13:37:00,45.4,26.2,30.43,SSW,203,1.3,4.3,47,0.00,,,0.00,WUHU216HW,2013-01-08 18:37:00,
2013-01-08 13:42:00,45.0,24.3,30.43,South,180,1.1,4.3,44,0.00,,,0.00,WUHU216HW,2013-01-08 18:42:00,
2013-01-08 13:47:00,44.8,25.2,30.43,SSW,203,2.5,3.4,46,0.00,,,0.00,WUHU216HW,2013-01-08 18:47:00,
2013-01-08 13:52:00,45.0,24.9,30.43,West,270,0.4,2.9,45,0.00,,,0.00,WUHU216HW,2013-01-08 18:52:00,
2013-01-08 13:57:00,45.0,24.3,30.43,SSE,158,2.2,2.9,44,0.00,,,0.00,WUHU216HW,2013-01-08 18:57:00,
2013-01-08 14:02:00,45.0,24.3,30.43,WSW,248,0.7,2.7,44,0.00,,,0.00,WUHU216HW,2013-01-08 19:02:00,
2013-01-08 14:07:00,44.8,24.7,30.43,West,270,2.2,2.5,45,0.00,,,0.00,WUHU216HW,2013-01-08 19:07:00,
2013-01-08 14:12:00,44.8,24.1,30.43,SE,135,1.8,2.7,44,0.00,,,0.00,WUHU216HW,2013-01-08 19:12:00,
2013-01-08 14:17:00,44.8,24.7,30.43,South,180,0.4,2.7,45,0.00,,,0.00,WUHU216HW,2013-01-08 19:17:00,
2013-01-08 14:22:00,44.8,24.1,30.43,SSW,203,0.9,2.2,44,0.00,,,0.00,WUHU216HW,2013-01-08 19:22:00,
2013-01-08 14:27:00,45.2,26.0,30.44,SE,135,3.1,3.1,47,0.00,,,0.00,WUHU216HW,2013-01-08 19:27:00,
2013-01-08 14:32:00,45.0,24.3,30.44,South,180,0.2,4.9,44,0.00,,,0.00,WUHU216HW,2013-01-08 19:32:00,
2013-01-08 14:37:00,45.0,23.8,30.43,SSW,203,1.8,4.9,43,0.00,,,0.00,WUHU216HW,2013-01-08 19:37:00,
2013-01-08 14:42:00,45.2,25.5,30.43,SE,135,2.2,2.7,46,0.00,,,0.00,WUHU216HW,2013-01-08 19:42:00,
2013-01-08 14:47:00,46.1,25.7,30.44,South,180,2.7,2.7,45,0.00,,,0.00,WUHU216HW,2013-01-08 19:47:00,
2013-01-08 14:52:00,46.3,24.3,30.43,SW,225,2.7,3.6,42,0.00,,,0.00,WUHU216HW,2013-01-08 19:52:00,
2013-01-08 14:57:00,45.9,25.1,30.44,SE,135,3.4,3.6,44,0.00,,,0.00,WUHU216HW,2013-01-08 19:57:00,
2013-01-08 15:02:00,45.7,25.5,30.44,ESE,113,0.2,3.4,45,0.00,,,0.00,WUHU216HW,2013-01-08 20:02:00,
2013-01-08 15:07:00,45.5,24.2,30.44,WSW,248,4.0,6.7,43,0.00,,,0.00,WUHU216HW,2013-01-08 20:07:00,
2013-01-08 15:12:00,45.2,24.4,30.44,SSW,203,0.7,6.7,44,0.00,,,0.00,WUHU216HW,2013-01-08 20:12:00,
2013-01-08 15:17:00,44.8,24.1,30.44,SSE,158,2.5,2.5,44,0.00,,,0.00,WUHU216HW,2013-01-08 20:17:00,
2013-01-08 15:22:00,44.6,23.9,30.44,SSW,203,0.9,2.5,44,0.00,,,0.00,WUHU216HW,2013-01-08 20:22:00,
2013-01-08 15:27:00,44.5,24.3,30.44,South,180,1.6,2.9,45,0.00,,,0.00,WUHU216HW,2013-01-08 20:27:00,
2013-01-08 15:32:00,44.5,23.8,30.44,SW,225,1.8,4.0,44,0.00,,,0.00,WUHU216HW,2013-01-08 20:32:00,
2013-01-08 15:37:00,44.6,24.5,30.44,SSE,158,2.2,4.0,45,0.00,,,0.00,WUHU216HW,2013-01-08 20:37:00,
2013-01-08 15:42:00,44.8,24.1,30.45,SSE,158,1.8,2.7,44,0.00,,,0.00,WUHU216HW,2013-01-08 20:42:00,
2013-01-08 15:47:00,44.6,23.9,30.45,SW,225,1.3,3.4,44,0.00,,,0.00,WUHU216HW,2013-01-08 20:47:00,
2013-01-08 15:52:00,44.6,24.5,30.45,SE,135,0.7,3.4,45,0.00,,,0.00,WUHU216HW,2013-01-08 20:52:00,
2013-01-08 15:57:00,44.5,24.8,30.45,SE,135,2.2,2.2,46,0.00,,,0.00,WUHU216HW,2013-01-08 20:57:00,
2013-01-08 16:02:00,44.5,24.8,30.45,SE,135,2.9,4.7,46,0.00,,,0.00,WUHU216HW,2013-01-08 21:02:00,
2013-01-08 16:07:00,44.3,24.7,30.45,SSE,158,1.8,4.7,46,0.00,,,0.00,WUHU216HW,2013-01-08 21:07:00,
2013-01-08 16:12:00,44.3,25.2,30.45,South,180,0.2,2.7,47,0.00,,,0.00,WUHU216HW,2013-01-08 21:12:00,
2013-01-08 16:17:00,44.1,24.6,30.44,SSW,203,0.4,1.6,46,0.00,,,0.00,WUHU216HW,2013-01-08 21:17:00,
2013-01-08 16:22:00,43.9,24.9,30.44,SSE,158,1.1,1.6,47,0.00,,,0.00,WUHU216HW,2013-01-08 21:22:00,
2013-01-08 16:27:00,43.9,24.4,30.45,SE,135,2.0,2.7,46,0.00,,,0.00,WUHU216HW,2013-01-08 21:27:00,
2013-01-08 16:32:00,43.7,24.8,30.45,South,180,2.9,2.9,47,0.00,,,0.00,WUHU216HW,2013-01-08 21:32:00,
2013-01-08 16:37:00,43.6,24.6,30.45,SSE,158,1.8,2.9,47,0.00,,,0.00,WUHU216HW,2013-01-08 21:37:00,
2013-01-08 16:42:00,43.6,25.1,30.45,ESE,113,4.0,4.0,48,0.00,,,0.00,WUHU216HW,2013-01-08 21:42:00,
2013-01-08 16:47:00,43.4,25.5,30.45,SE,135,5.4,5.4,49,0.00,,,0.00,WUHU216HW,2013-01-08 21:47:00,
2013-01-08 16:52:00,43.2,25.4,30.45,SE,135,3.1,5.4,49,0.00,,,0.00,WUHU216HW,2013-01-08 21:52:00,
2013-01-08 16:57:00,43.0,25.8,30.45,South,180,1.8,5.1,50,0.00,,,0.00,WUHU216HW,2013-01-08 21:57:00,
2013-01-08 17:02:00,42.8,25.6,30.45,SE,135,1.3,4.5,50,0.00,,,0.00,WUHU216HW,2013-01-08 22:02:00,
2013-01-08 17:07:00,42.7,25.8,30.45,SSE,158,2.2,3.4,51,0.00,,,0.00,WUHU216HW,2013-01-08 22:07:00,
2013-01-08 17:12:00,42.5,26.1,30.45,SE,135,4.7,4.7,52,0.00,,,0.00,WUHU216HW,2013-01-08 22:12:00,
2013-01-08 17:17:00,42.3,25.9,30.45,SE,135,2.5,5.4,52,0.00,,,0.00,WUHU216HW,2013-01-08 22:17:00,
2013-01-08 17:22:00,42.1,25.8,30.44,WSW,248,0.4,5.4,52,0.00,,,0.00,WUHU216HW,2013-01-08 22:22:00,
2013-01-08 17:27:00,41.9,26.0,30.44,SSE,158,1.8,2.5,53,0.00,,,0.00,WUHU216HW,2013-01-08 22:27:00,
2013-01-08 17:32:00,41.8,26.3,30.44,East,90,2.7,3.6,54,0.00,,,0.00,WUHU216HW,2013-01-08 22:32:00,
2013-01-08 17:37:00,41.8,26.7,30.44,ESE,113,1.1,3.6,55,0.00,,,0.00,WUHU216HW,2013-01-08 22:37:00,
2013-01-08 17:42:00,41.6,26.6,30.44,SSE,158,1.1,2.5,55,0.00,,,0.00,WUHU216HW,2013-01-08 22:42:00,
2013-01-08 17:47:00,41.6,27.0,30.45,South,180,2.0,2.5,56,0.00,,,0.00,WUHU216HW,2013-01-08 22:47:00,
2013-01-08 17:52:00,41.4,26.8,30.45,ESE,113,1.8,2.7,56,0.00,,,0.00,WUHU216HW,2013-01-08 22:52:00,
2013-01-08 17:57:00,41.2,26.7,30.45,ESE,113,2.5,4.0,56,0.00,,,0.00,WUHU216HW,2013-01-08 22:57:00,
2013-01-08 18:02:00,41.0,27.4,30.45,ESE,113,4.0,4.0,58,0.00,,,0.00,WUHU216HW,2013-01-08 23:02:00,
2013-01-08 18:07:00,40.7,27.0,30.45,East,90,1.1,4.0,58,0.00,,,0.00,WUHU216HW,2013-01-08 23:07:00,
2013-01-08 18:12:00,40.5,27.3,30.45,ESE,113,2.5,4.7,59,0.00,,,0.00,WUHU216HW,2013-01-08 23:12:00,
2013-01-08 18:17:00,40.3,27.1,30.45,SE,135,0.9,4.7,59,0.00,,,0.00,WUHU216HW,2013-01-08 23:17:00,
2013-01-08 18:22:00,40.0,26.7,30.45,South,180,2.2,3.6,59,0.00,,,0.00,WUHU216HW,2013-01-08 23:22:00,
2013-01-08 18:27:00,40.0,27.5,30.45,ESE,113,2.0,3.8,61,0.00,,,0.00,WUHU216HW,2013-01-08 23:27:00,
2013-01-08 18:32:00,39.6,27.2,30.45,ESE,113,2.5,3.8,61,0.00,,,0.00,WUHU216HW,2013-01-08 23:32:00,
2013-01-08 18:37:00,39.4,27.8,30.45,SSE,158,4.5,4.5,63,0.00,,,0.00,WUHU216HW,2013-01-08 23:37:00,
2013-01-08 18:42:00,39.2,27.6,30.45,ESE,113,4.0,4.5,63,0.00,,,0.00,WUHU216HW,2013-01-08 23:42:00,
2013-01-08 18:47:00,39.2,27.6,30.45,ESE,113,3.1,4.3,63,0.00,,,0.00,WUHU216HW,2013-01-08 23:47:00,
2013-01-08 18:52:00,39.1,27.5,30.45,ESE,113,3.8,4.3,63,0.00,,,0.00,WUHU216HW,2013-01-08 23:52:00,
2013-01-08 18:57:00,39.1,27.8,30.45,SSE,158,1.8,4.3,64,0.00,,,0.00,WUHU216HW,2013-01-08 23:57:00,
2013-01-08 19:02:00,38.9,27.3,30.45,South,180,2.9,4.0,63,0.00,,,0.00,WUHU216HW,2013-01-09 00:02:00,
2013-01-08 19:07:00,38.7,27.5,30.45,East,90,3.4,4.0,64,0.00,,,0.00,WUHU216HW,2013-01-09 00:07:00,
2013-01-08 19:12:00,38.5,27.4,30.46,ESE,113,4.5,4.5,64,0.00,,,0.00,WUHU216HW,2013-01-09 00:12:00,
2013-01-08 19:17:00,38.5,27.4,30.45,SE,135,1.8,4.5,64,0.00,,,0.00,WUHU216HW,2013-01-09 00:17:00,
2013-01-08 19:22:00,38.3,27.9,30.45,South,180,1.3,4.0,66,0.00,,,0.00,WUHU216HW,2013-01-09 00:22:00,
2013-01-08 19:27:00,38.2,27.4,30.45,South,180,2.5,4.0,65,0.00,,,0.00,WUHU216HW,2013-01-09 00:27:00,
2013-01-08 19:32:00,38.2,27.4,30.45,SE,135,2.7,3.4,65,0.00,,,0.00,WUHU216HW,2013-01-09 00:32:00,
2013-01-08 19:37:00,38.0,27.6,30.46,SE,135,2.5,2.7,66,0.00,,,0.00,WUHU216HW,2013-01-09 00:37:00,
2013-01-08 19:42:00,37.8,27.8,30.46,East,90,0.4,2.5,67,0.00,,,0.00,WUHU216HW,2013-01-09 00:42:00,
2013-01-08 19:47:00,37.8,27.8,30.45,ESE,113,2.5,3.4,67,0.00,,,0.00,WUHU216HW,2013-01-09 00:47:00,
2013-01-08 19:52:00,37.8,27.8,30.46,SSE,158,1.8,3.4,67,0.00,,,0.00,WUHU216HW,2013-01-09 00:52:00,
2013-01-08 19:57:00,37.6,27.6,30.46,West,270,1.8,3.4,67,0.00,,,0.00,WUHU216HW,2013-01-09 00:57:00,
2013-01-08 20:02:00,37.6,27.6,30.46,ESE,113,0.9,3.4,67,0.00,,,0.00,WUHU216HW,2013-01-09 01:02:00,
2013-01-08 20:07:00,37.6,28.0,30.47,SSE,158,1.1,2.0,68,0.00,,,0.00,WUHU216HW,2013-01-09 01:07:00,
2013-01-08 20:12:00,37.4,27.9,30.46,East,90,3.1,3.6,68,0.00,,,0.00,WUHU216HW,2013-01-09 01:12:00,
2013-01-08 20:17:00,37.3,27.3,30.47,East,90,2.9,4.0,67,0.00,,,0.00,WUHU216HW,2013-01-09 01:17:00,
2013-01-08 20:22:00,37.1,27.6,30.46,NE,45,2.0,4.0,68,0.00,,,0.00,WUHU216HW,2013-01-09 01:22:00,
2013-01-08 20:27:00,36.7,27.6,30.47,East,90,1.3,2.9,69,0.00,,,0.00,WUHU216HW,2013-01-09 01:27:00,
2013-01-08 20:32:00,36.5,27.4,30.47,SSE,158,3.4,3.4,69,0.00,,,0.00,WUHU216HW,2013-01-09 01:32:00,
2013-01-08 20:37:00,36.4,27.2,30.46,SSE,158,2.5,4.0,69,0.00,,,0.00,WUHU216HW,2013-01-09 01:37:00,
2013-01-08 20:42:00,36.4,27.5,30.46,ESE,113,3.1,4.0,70,0.00,,,0.00,WUHU216HW,2013-01-09 01:42:00,
2013-01-08 20:47:00,36.2,27.0,30.46,ESE,113,2.2,4.3,69,0.00,,,0.00,WUHU216HW,2013-01-09 01:47:00,
2013-01-08 20:52:00,36.0,27.2,30.46,East,90,2.7,4.3,70,0.00,,,0.00,WUHU216HW,2013-01-09 01:52:00,
2013-01-08 20:57:00,36.0,27.6,30.46,SSE,158,2.5,2.7,71,0.00,,,0.00,WUHU216HW,2013-01-09 01:57:00,
2013-01-08 21:02:00,36.0,27.8,30.45,South,180,1.8,3.6,72,0.00,,,0.00,WUHU216HW,2013-01-09 02:02:00,
2013-01-08 21:07:00,36.0,27.8,30.46,SSW,203,2.5,3.6,72,0.00,,,0.00,WUHU216HW,2013-01-09 02:07:00,
2013-01-08 21:12:00,35.8,28.0,30.46,ENE,68,2.9,3.6,73,0.00,,,0.00,WUHU216HW,2013-01-09 02:12:00,
2013-01-08 21:17:00,35.6,27.8,30.45,SSE,158,3.6,4.0,73,0.00,,,0.00,WUHU216HW,2013-01-09 02:17:00,
2013-01-08 21:22:00,35.6,27.5,30.45,SE,135,5.4,5.4,72,0.00,,,0.00,WUHU216HW,2013-01-09 02:22:00,
2013-01-08 21:27:00,35.5,27.6,30.45,SE,135,3.4,5.4,73,0.00,,,0.00,WUHU216HW,2013-01-09 02:27:00,
2013-01-08 21:32:00,35.5,27.6,30.44,ESE,113,3.1,3.6,73,0.00,,,0.00,WUHU216HW,2013-01-09 02:32:00,
2013-01-08 21:37:00,35.3,27.5,30.44,SE,135,3.4,3.6,73,0.00,,,0.00,WUHU216HW,2013-01-09 02:37:00,
2013-01-08 21:42:00,35.3,27.5,30.43,SE,135,3.8,3.8,73,0.00,,,0.00,WUHU216HW,2013-01-09 02:42:00,
2013-01-08 21:47:00,35.3,27.7,30.43,South,180,4.0,5.8,74,0.00,,,0.00,WUHU216HW,2013-01-09 02:47:00,
2013-01-08 21:52:00,35.5,27.9,30.43,SE,135,1.8,5.8,74,0.00,,,0.00,WUHU216HW,2013-01-09 02:52:00,
2013-01-08 21:57:00,35.6,28.1,30.43,ESE,113,2.5,4.3,74,0.00,,,0.00,WUHU216HW,2013-01-09 02:57:00,
2013-01-08 22:02:00,35.6,28.1,30.43,SE,135,2.0,4.3,74,0.00,,,0.00,WUHU216HW,2013-01-09 03:02:00,
2013-01-08 22:07:00,35.5,27.9,30.43,ESE,113,2.7,4.3,74,0.00,,,0.00,WUHU216HW,2013-01-09 03:07:00,
2013-01-08 22:12:00,35.3,27.7,30.43,East,90,3.6,4.3,74,0.00,,,0.00,WUHU216HW,2013-01-09 03:12:00,
2013-01-08 22:17:00,35.3,27.7,30.42,ESE,113,3.8,4.5,74,0.00,,,0.00,WUHU216HW,2013-01-09 03:17:00,
2013-01-08 22:22:00,35.1,27.5,30.42,SE,135,1.8,4.9,74,0.00,,,0.00,WUHU216HW,2013-01-09 03:22:00,
2013-01-08 22:27:00,35.3,28.1,30.42,SSE,158,1.1,4.9,75,0.00,,,0.00,WUHU216HW,2013-01-09 03:27:00,
2013-01-08 22:32:00,35.3,28.1,30.42,East,90,3.4,6.3,75,0.00,,,0.00,WUHU216HW,2013-01-09 03:32:00,
2013-01-08 22:37:00,35.3,28.1,30.42,SE,135,2.0,6.3,75,0.00,,,0.00,WUHU216HW,2013-01-09 03:37:00,
2013-01-08 22:42:00,35.3,28.1,30.42,SE,135,2.2,3.4,75,0.00,,,0.00,WUHU216HW,2013-01-09 03:42:00,
2013-01-08 22:47:00,35.3,28.1,30.43,SE,135,1.1,3.4,75,0.00,,,0.00,WUHU216HW,2013-01-09 03:47:00,
2013-01-08 22:52:00,35.3,28.1,30.42,SE,135,4.7,4.7,75,0.00,,,0.00,WUHU216HW,2013-01-09 03:52:00,
2013-01-08 22:57:00,35.3,28.1,30.42,ESE,113,2.5,5.4,75,0.00,,,0.00,WUHU216HW,2013-01-09 03:57:00,
2013-01-08 23:02:00,35.3,28.1,30.42,SSE,158,6.0,6.0,75,0.00,,,0.00,WUHU216HW,2013-01-09 04:02:00,
2013-01-08 23:07:00,35.1,28.3,30.42,ESE,113,1.6,6.0,76,0.00,,,0.00,WUHU216HW,2013-01-09 04:07:00,
2013-01-08 23:12:00,35.3,28.5,30.42,SSE,158,2.5,3.1,76,0.00,,,0.00,WUHU216HW,2013-01-09 04:12:00,
2013-01-08 23:17:00,35.3,28.5,30.42,SSE,158,2.0,4.5,76,0.00,,,0.00,WUHU216HW,2013-01-09 04:17:00,
2013-01-08 23:22:00,35.3,28.5,30.42,SSE,158,2.5,4.5,76,0.00,,,0.00,WUHU216HW,2013-01-09 04:22:00,
2013-01-08 23:27:00,35.3,28.5,30.42,South,180,1.8,4.5,76,0.00,,,0.00,WUHU216HW,2013-01-09 04:27:00,
2013-01-08 23:32:00,35.3,28.5,30.42,SSE,158,2.5,3.8,76,0.00,,,0.00,WUHU216HW,2013-01-09 04:32:00,
2013-01-08 23:37:00,35.1,28.3,30.41,SE,135,3.4,3.8,76,0.00,,,0.00,WUHU216HW,2013-01-09 04:37:00,
2013-01-08 23:42:00,34.9,28.1,30.41,ESE,113,2.2,3.8,76,0.00,,,0.00,WUHU216HW,2013-01-09 04:42:00,
2013-01-08 23:47:00,34.9,28.1,30.41,SE,135,1.1,3.4,76,0.00,,,0.00,WUHU216HW,2013-01-09 04:47:00,
2013-01-08 23:52:00,34.9,28.1,30.41,SE,135,3.1,4.9,76,0.00,,,0.00,WUHU216HW,2013-01-09 04:52:00,
2013-01-08 23:57:00,34.9,28.1,30.41,SE,135,4.5,4.9,76,0.00,,,0.00,WUHU216HW,2013-01-09 04:57:00,